Dewpoint
68 67 66 66 65 66 66 68 69 70 70 70 69 70 71 71 72 73 74 75 75 75 75 75 76 76 76 76 76 75 76 75 75 75 75 75 74 73 73 73 73 72
68 68 68 67 67 67 67 67 69 70 70 70 70 70 70 71 71 72 72 73 75 75 75 75 75 75 75 75 75 75 75 75 75 75 75 75 74 74 73 74 73 73
67 67 67 66 65 65 65 66 68 69 69 69 70 70 69 70 70 71 72 73 74 74 75 75 75 75 75 75 75 75 74 74 74 75 75 75 74 74 74 73 73 73
67 67 66 66 66 65 65 66 67 68 68 69 69 69 69 69 70 70 71 73 73 74 74 75 75 75 75 75 75 75 74 74 74 75 75 75 75 74 74 74 74 74
67 67 67 67 67 67 66 65 65 66 66 67 68 70 71 70 70 69 70 71 73 73 74 74 74 74 75 75 75 75 75 74 75 75 75 75 75 75 74 74 74 74
67 67 68 67 67 67 66 65 65 66 66 66 67 69 69 70 69 69 69 70 71 73 73 74 74 74 74 75 75 75 74 74 74 74 74 74 74 74 74 74 74 73
67 67 66 66 66 66 66 66 66 67 66 66 68 68 69 69 69 69 69 70 70 72 73 73 74 74 74 75 75 74 74 75 75 75 74 74 74 74 74 74 74 74
67 67 67 66 66 66 66 66 66 66 66 68 67 68 69 69 69 69 69 69 70 71 73 73 74 74 74 74 74 74 74 74 74 74 74 74 74 74 74 74 74 74
67 67 67 66 65 65 64 65 66 66 67 66 66 67 70 69 69 69 70 70 70 71 72 73 73 74 74 74 74 74 74 74 74 74 74 74 74 74 74 74 74 74
67 67 66 66 65 64 64 64 64 65 68 66 66 66 68 70 70 70 70 70 70 70 71 72 73 73 74 74 74 74 74 74 74 74 74 74 74 74 74 74 74 74
66 66 66 66 66 65 64 63 63 64 66 67 66 66 66 69 71 71 70 70 70 70 70 72 72 73 73 73 74 74 74 74 74 74 74 74 74 74 74 74 74 73
66 66 65 66 66 66 65 64 64 63 64 66 67 66 66 66 68 70 70 70 70 70 70 71 72 73 73 73 73 74 74 74 74 74 74 74 74 74 74 74 74 74
66 66 66 65 66 66 66 65 65 64 63 64 66 66 66 66 66 68 70 69 70 70 70 71 71 72 73 73 73 74 74 74 74 74 74 74 74 74 74 74 74 74
67 67 66 67 67 67 67 66 65 65 65 65 66 66 65 66 66 66 68 69 69 69 70 71 71 72 72 73 73 73 73 74 74 74 74 74 74 74 74 74 74 74
68 68 68 68 68 68 68 67 67 67 67 66 66 66 65 65 66 66 67 68 69 69 69 69 70 71 71 72 73 73 73 73 74 74 74 74 74 74 74 74 74 74
68 69 69 69 69 69 69 69 68 68 67 67 66 66 67 68 68 68 67 68 69 69 70 69 69 70 70 68 69 72 73 73 73 74 74 74 74 74 73 74 73 74
69 69 69 69 69 69 70 69 69 69 69 68 68 67 67 68 68 67 67 67 68 68 69 70 69 69 67 64 65 67 71 73 73 73 74 74 74 74 74 73 73 74
68 69 70 70 70 70 70 70 70 70 69 69 68 67 68 67 67 67 68 68 68 68 68 69 70 68 64 63 64 64 68 72 72 73 73 73 74 73 74 73 73 73
69 69 70 70 70 70 70 70 70 70 70 69 68 68 68 68 68 67 68 68 68 68 68 68 69 66 63 62 63 63 64 69 72 72 72 73 73 74 74 74 74 74
69 69 70 70 70 71 71 71 70 70 70 69 69 69 69 68 68 68 68 69 68 68 69 68 69 66 62 61 62 62 63 66 72 72 72 72 73 73 73 73 74 73
70 70 70 70 71 71 71 71 70 70 70 70 69 69 69 69 68 68 68 69 68 68 68 68 68 64 61 60 60 60 61 64 71 72 72 72 73 73 73 73 73 73
70 70 71 71 71 71 71 71 71 71 71 71 70 69 69 69 70 69 69 69 69 69 68 68 68 62 61 60 59 59 61 67 70 71 72 72 72 72 73 73 73 73
72 71 72 72 72 72 72 71 72 71 72 72 71 70 70 69 69 69 70 69 69 70 69 69 69 65 59 58 58 58 60 68 70 71 71 72 72 72 72 73 73 73
73 73 72 73 73 72 72 72 72 72 72 72 72 72 71 70 70 70 70 70 69 70 69 69 69 67 59 57 57 57 62 68 70 70 71 71 71 72 72 73 73 74
74 73 73 73 72 72 72 72 72 71 72 72 72 71 71 72 71 70 70 70 69 69 70 70 70 67 59 57 56 56 62 69 70 70 70 71 71 71 72 72 72 73
73 73 73 72 72 72 72 72 72 72 72 71 71 71 71 71 71 71 70 70 70 70 70 70 70 70 68 57 56 55 58 69 70 70 70 70 71 71 71 72 72 72